Theta_e
312 314 316 320 315 322 316 319 316 314 311 314 316 318 318 312 312 315 315 316 321 318 318 320 318 319 318 318 319 321 323 326 327 328 329 330 329 328 327 324 325 326 324 324
310 315 313 316 319 314 314 314 315 311 310 312 314 315 317 313 313 314 316 316 316 317 317 318 318 319 318 318 317 319 320 322 324 326 328 328 328 328 327 327 326 324 324 324
312 315 310 310 310 312 313 316 315 315 310 310 311 315 315 314 312 311 312 313 314 316 317 317 318 318 318 319 318 318 318 318 320 321 325 329 331 331 329 329 327 326 326 325
309 307 310 311 312 313 313 310 312 312 314 315 310 317 316 316 314 311 313 313 314 314 314 315 316 317 317 317 318 318 319 318 319 320 322 324 323 326 325 326 326 327 328 327
312 308 310 312 313 312 314 309 312 311 314 312 311 313 316 309 314 315 315 315 315 316 316 316 315 314 315 315 317 317 318 317 316 320 321 322 324 326 328 327 327 328 329 329
308 307 310 312 306 311 306 309 308 309 311 313 314 313 315 313 313 315 315 315 315 315 316 316 315 314 313 313 314 315 314 313 311 311 314 321 323 325 326 326 326 328 329 330
308 308 306 307 309 306 309 312 312 313 313 313 305 308 314 313 312 313 314 312 309 311 312 312 311 311 312 312 312 312 311 311 311 311 311 314 320 324 324 325 326 328 328 330
311 310 308 307 311 310 310 313 313 316 313 313 304 310 313 311 309 308 307 307 308 309 310 309 309 310 309 310 311 311 311 310 311 311 312 314 316 319 321 322 323 325 327 326
312 310 306 306 306 310 310 311 310 308 302 311 311 309 309 311 308 306 306 305 306 307 309 309 309 309 309 309 309 310 310 311 311 311 312 314 316 318 319 321 322 318 322 324
310 310 307 306 307 306 309 309 309 310 315 313 309 309 313 311 309 307 307 306 307 307 309 309 309 310 310 311 311 311 311 311 311 312 312 312 312 312 311 311 311 311 311 313
309 310 308 306 308 310 308 309 308 310 311 317 312 311 309 308 307 307 307 307 307 309 309 309 310 310 310 310 310 310 310 310 310 311 311 312 312 313 312 312 312 311 310 309
309 310 310 308 306 306 310 310 310 312 309 307 309 312 304 306 307 305 305 305 306 309 309 310 310 309 309 309 310 310 311 311 312 312 312 312 312 312 312 312 312 313 312 311
308 310 312 309 308 306 307 306 310 308 309 309 315 312 304 305 306 305 305 304 306 308 309 309 309 308 309 309 309 309 309 309 309 309 309 310 310 310 311 312 313 314 315 315
308 309 312 313 312 309 308 307 309 309 313 310 310 311 307 308 308 305 304 305 306 309 309 308 308 308 308 308 309 309 309 308 308 309 309 309 310 310 311 311 312 313 314 315
309 313 307 306 308 309 309 308 308 308 310 310 311 309 309 309 309 307 307 305 307 308 308 308 309 309 309 309 309 309 309 309 308 308 308 309 309 310 310 310 310 311 312 311
306 312 308 308 306 308 309 308 308 309 310 310 308 309 308 307 307 306 307 306 307 308 308 309 309 309 309 309 309 309 309 309 308 308 308 308 308 309 309 309 309 309 308 309
311 309 313 311 306 310 312 309 308 309 310 310 309 310 307 305 307 307 307 307 308 308 308 309 309 309 309 309 309 309 309 308 308 308 308 307 308 308 308 308 308 307 307 308
308 309 311 307 308 312 311 309 309 309 309 309 309 309 308 307 308 309 308 308 308 309 308 308 309 309 310 310 309 309 308 308 307 307 307 307 307 307 307 307 307 307 306 306
308 309 307 311 312 310 307 304 307 308 309 307 308 308 307 307 306 306 308 308 308 309 308 308 309 309 309 309 309 309 309 308 307 307 306 306 306 306 306 306 306 306 306 306
304 310 313 303 312 311 308 303 305 307 310 308 307 308 305 304 309 310 309 309 308 308 307 308 308 309 309 309 309 309 308 307 307 306 306 305 305 305 305 304 304 303 302 301
307 309 310 307 313 313 304 302 307 310 311 308 306 306 306 306 309 310 310 308 306 305 306 308 308 308 307 307 308 308 307 307 306 306 305 305 304 304 304 303 302 301 299 298
309 311 311 305 310 310 300 301 309 309 305 306 306 306 305 306 306 306 307 307 306 305 306 306 306 305 305 305 305 305 305 306 306 305 305 304 304 303 302 301 300 298 296 294
310 310 311 310 310 303 301 305 305 307 308 307 308 308 307 306 305 305 305 305 305 305 306 304 304 303 303 302 302 303 303 304 304 304 304 303 302 302 301 299 297 296 294 292
304 301 310 309 306 304 302 304 305 306 307 307 307 308 307 306 304 304 304 304 304 303 303 302 302 302 301 301 301 302 302 302 303 303 302 302 301 301 300 299 297 295 293 292
306 303 304 304 301 302 302 304 307 306 307 307 307 308 308 306 304 304 303 303 302 302 302 301 301 301 301 301 301 301 301 301 301 301 301 301 301 300 299 298 296 295 294 291
302 303 307 309 304 306 306 305 305 305 306 307 308 306 305 304 304 303 302 302 301 301 300 300 300 299 299 299 299 299 299 300 300 300 300 300 299 299 298 297 296 295 292 289
Wind_Speed
8 5 15 23 13 12 16 13 11 11 5 8 14 13 13 6 9 14 15 16 17 22 19 21 23 22 22 23 25 25 25 25 24 25 25 24 23 21 20 19 21 23 19 17
6 12 14 18 19 10 13 13 11 3 4 6 6 15 14 11 9 17 18 17 21 22 24 25 25 26 26 26 27 27 28 27 27 27 27 25 24 23 21 19 18 18 19 20
14 8 16 9 11 15 12 17 12 5 5 2 1 13 13 10 16 14 18 18 18 25 26 26 27 28 29 31 29 28 27 27 28 27 28 28 28 28 26 25 21 21 21 18
6 3 17 13 18 17 11 6 8 9 9 8 5 6 15 21 13 11 21 22 27 26 27 25 27 28 31 31 30 28 27 28 28 29 30 32 29 30 26 24 20 19 20 20
10 12 16 18 22 15 5 10 8 3 7 2 5 6 9 2 13 20 26 24 29 32 29 30 30 29 29 28 29 29 29 29 29 32 32 32 31 30 28 27 25 23 22 21
2 6 13 9 3 12 15 12 7 3 1 8 15 10 8 8 17 20 24 30 36 35 35 35 34 30 29 28 30 30 30 30 30 30 32 34 32 30 31 30 28 27 26 26
5 4 4 8 10 7 7 17 5 6 6 7 2 7 12 10 12 14 12 15 16 26 32 35 34 30 28 30 31 29 29 28 28 27 27 29 30 30 30 29 29 28 27 27
14 8 12 6 13 11 16 17 5 7 5 4 2 8 4 12 10 10 9 5 11 15 16 17 19 20 24 26 26 29 30 28 24 22 22 25 27 28 28 27 27 26 25 25
16 9 3 5 5 16 13 12 5 6 1 2 5 4 11 7 7 9 7 12 13 10 10 12 14 16 16 18 19 19 20 18 17 17 19 21 23 23 22 23 23 24 23 22
11 7 5 3 5 2 12 11 6 2 5 5 4 4 7 4 4 1 5 14 13 15 13 15 17 17 17 17 16 16 15 14 15 16 15 16 17 19 20 21 22 23 24 22
15 6 6 6 10 17 7 11 2 5 3 4 2 4 4 3 3 4 4 10 15 19 17 18 17 17 17 16 14 13 13 12 12 13 14 14 14 13 14 15 16 17 18 19
6 7 8 14 4 3 12 14 15 7 5 1 1 3 3 5 7 8 10 9 13 17 17 18 17 16 15 15 14 12 12 11 11 12 12 11 12 12 13 13 14 14 13 13
10 4 7 6 3 3 14 9 18 3 2 7 5 3 2 3 4 8 9 10 15 17 18 18 18 16 15 14 13 13 12 11 11 10 10 10 10 11 10 10 9 8 8 8
8 3 8 14 19 9 10 13 15 12 5 6 14 5 3 3 4 4 8 14 16 19 18 18 17 17 15 14 12 11 10 10 11 11 11 12 11 11 10 10 9 8 7 7
3 5 3 5 4 12 18 19 19 21 18 13 14 13 8 10 9 12 12 17 21 22 22 20 18 17 16 14 13 12 12 12 12 12 12 11 11 11 10 9 9 9 9 10
1 4 4 3 5 4 11 16 20 25 21 22 8 10 4 6 10 11 17 20 23 23 23 21 19 17 15 14 14 14 14 15 15 14 13 13 12 11 11 10 10 10 8 8
14 6 4 4 2 6 1 19 19 18 22 27 19 15 9 7 12 18 22 24 25 23 23 21 20 16 15 16 17 17 18 19 18 16 14 14 13 12 11 10 10 10 10 9
16 7 3 4 1 5 8 15 21 26 25 23 20 9 15 14 29 32 30 31 27 26 26 23 20 19 18 17 18 18 19 19 18 16 15 15 14 13 11 11 10 10 10 10
14 7 5 6 14 4 13 10 15 14 12 13 24 16 17 22 19 18 31 29 30 31 28 25 22 18 16 15 14 14 16 17 18 16 14 14 13 12 11 10 10 11 11 11
1 7 3 6 12 15 6 12 20 8 15 19 22 15 15 16 11 14 32 36 35 35 29 25 21 18 15 14 13 13 14 15 15 13 13 13 12 11 11 11 11 11 11 12
8 9 16 4 8 7 4 12 31 13 13 20 27 25 26 12 29 31 28 33 33 32 28 26 23 18 15 14 14 14 14 13 13 13 13 13 13 12 12 12 12 13 14 14
13 13 9 2 6 16 8 12 18 9 8 12 20 28 32 34 22 21 19 26 31 30 28 24 20 19 17 14 11 11 10 11 11 11 12 13 13 13 14 14 14 14 15 15
8 13 9 13 11 1 22 6 19 16 18 15 15 15 20 28 31 23 21 27 28 28 27 25 21 19 17 13 11 10 9 9 10 10 12 13 14 13 13 12 13 14 15 16
4 2 6 4 6 7 23 12 22 14 16 17 15 13 18 20 22 22 27 29 30 27 25 22 20 18 14 12 11 9 8 8 8 9 11 12 12 11 11 12 14 16 17 17
3 11 7 2 1 4 15 25 21 26 18 16 16 16 19 19 22 25 29 29 27 24 23 20 18 15 12 10 8 8 7 6 7 9 11 12 12 13 14 15 16 17 18 20
5 6 9 7 17 7 14 32 21 23 22 19 19 18 17 20 28 30 30 27 25 23 20 18 15 13 10 9 8 7 7 8 9 11 13 14 15 16 17 17 19 21 22 23
Wind_Direction
150 156 196 199 200 189 175 184 187 199 163 197 221 229 231 196 217 211 206 213 221 227 223 222 219 217 215 214 215 217 221 224 224 229 233 236 242 246 251 253 255 256 253 248
150 212 196 177 196 186 172 173 189 134 140 204 234 243 243 217 230 220 222 211 223 229 228 227 221 221 221 220 220 220 224 226 228 233 238 242 248 251 254 257 256 252 250 251
169 198 163 159 163 167 180 191 185 204 139 164 243 258 236 225 232 233 234 233 228 231 232 231 227 226 227 229 228 227 228 232 233 235 239 241 242 246 246 248 251 253 255 256
237 155 166 177 194 189 179 197 159 141 174 219 198 255 224 226 216 219 235 232 238 235 235 234 235 232 234 236 237 237 237 238 239 235 236 240 244 246 251 255 258 256 255 257
210 182 164 180 193 190 170 145 146 154 214 262 184 244 236 200 224 226 227 230 236 242 245 248 243 238 237 237 238 237 238 240 242 242 239 241 242 246 248 251 255 258 258 256
331 229 180 170 121 180 138 114 82 92 169 249 234 232 224 208 222 233 224 225 234 242 243 246 248 248 240 235 232 232 236 239 240 241 240 239 242 247 250 253 256 257 259 259
233 181 144 152 138 140 171 160 155 196 208 240 117 224 251 239 233 236 244 231 226 235 243 248 252 250 244 234 228 228 230 231 235 239 238 238 242 246 249 252 256 256 256 259
177 193 183 174 194 174 179 183 179 178 194 188 116 232 224 246 269 234 219 189 206 216 229 234 232 230 230 227 226 229 229 233 237 235 234 235 238 239 243 247 251 254 259 259
181 192 174 215 153 161 180 207 136 106 67 229 202 256 270 243 239 227 219 221 218 219 216 212 210 204 202 206 209 211 212 214 222 230 232 232 236 241 246 249 254 257 256 254
167 139 217 165 136 136 194 144 182 196 158 228 211 262 235 266 214 209 224 218 218 217 202 187 181 180 178 180 183 186 189 195 202 213 221 228 235 243 250 254 257 259 259 254
159 132 169 172 211 180 155 190 177 147 167 205 202 234 212 227 262 259 255 215 203 195 188 179 173 171 171 173 175 180 187 194 199 208 217 223 230 239 246 250 251 251 251 248
176 115 156 190 72 297 205 198 192 192 181 184 16 262 150 238 256 242 243 216 189 183 176 172 169 170 171 172 169 170 174 180 189 200 210 218 227 234 239 241 240 239 240 241
170 158 115 146 274 196 211 198 199 139 108 189 172 206 162 216 234 238 233 198 182 181 178 173 173 171 166 164 167 172 180 185 194 205 215 222 228 233 239 242 240 232 225 223
120 127 176 190 219 134 194 194 194 195 209 152 224 216 238 200 205 191 170 177 181 178 178 173 169 168 169 173 177 182 191 200 206 212 216 218 221 224 231 236 230 219 214 223
117 107 95 17 130 167 183 181 179 198 208 205 221 211 208 199 192 190 178 177 177 178 176 175 173 177 180 185 193 202 211 220 224 225 224 226 223 223 224 229 236 223 218 223
8 126 117 35 45 117 175 183 186 207 208 236 237 239 195 189 176 186 187 183 182 181 179 177 182 190 195 205 216 225 231 233 234 235 233 232 230 230 229 231 233 229 230 218
182 133 130 126 53 90 70 204 198 210 208 220 221 216 177 190 199 206 199 196 192 189 186 189 197 203 211 219 225 227 229 231 231 230 230 232 230 226 228 231 229 231 219 222
163 137 76 109 65 176 228 194 209 213 216 218 233 179 186 199 209 213 211 206 201 197 201 203 207 212 215 219 221 224 229 230 229 229 228 229 231 231 232 232 234 234 231 231
178 136 129 157 197 270 230 213 195 190 232 213 226 213 198 206 224 233 223 215 213 209 213 213 212 213 210 211 214 222 224 223 225 225 228 232 230 230 232 235 237 237 236 234
13 181 120 156 192 220 285 178 162 114 257 206 212 198 183 177 218 231 229 228 216 213 214 212 208 203 197 196 204 212 216 215 218 221 223 228 231 230 231 230 232 234 234 234
164 175 206 196 205 269 226 155 146 165 260 184 193 192 184 194 217 227 226 222 219 218 210 205 198 193 188 191 194 197 200 206 209 213 220 222 223 224 227 230 230 232 231 229
170 166 197 163 208 249 153 147 176 176 160 163 190 204 198 209 219 220 221 216 208 200 193 189 184 178 177 178 184 192 193 198 200 209 218 222 222 222 224 225 228 229 230 229
193 198 172 196 204 197 178 151 193 173 183 185 188 196 207 215 221 218 205 195 189 185 182 176 174 175 171 169 173 178 188 193 197 205 214 222 224 223 224 228 233 236 237 234
229 156 190 132 194 176 189 205 201 188 201 207 202 202 203 207 207 200 185 178 174 173 171 170 169 169 167 167 168 177 186 195 200 212 222 229 234 237 240 240 241 241 242 243
174 147 157 188 38 120 204 204 203 204 203 198 197 198 200 197 192 186 173 166 165 168 167 168 169 166 165 166 175 189 201 218 228 237 243 247 250 251 250 250 251 252 250 246
193 158 186 213 174 167 200 201 199 199 199 195 190 179 179 188 178 169 160 160 165 168 169 167 163 159 167 182 201 216 233 244 250 257 262 262 259 257 257 258 257 254 252 246